UAE809 OMDB-OEMA

Flight info

Callsign UAE809
Flight time 2h 30m
Altitude 30000
Route KUTLI4G KUTLI L519 ATUDO M318 GOLGU M550 RIBOT/N0496F280 M550 MEVDO/N0506F300 DCT DANOM DCT ASMIS DCT ELONU ELONU1H
Aircraft B77W/H-SDE1E2E3FGHIJ2J3J4J5M1RWXY/LB1D1

Departure

Time 2026-04-21 11:39
Airport Dubai International Airport (OMDB)

Arrival

Time 2026-04-21 14:09
Airport Prince Mohammad Bin Abdulaziz Airport (OEMA)
Time Latitude Longitude Altitude Speed Heading
2026-04-21 11:00 25.24136 55.37562 32 ft 0 kts 301°
2026-04-21 11:24 25.24132 55.37568 26 ft 4 kts 301°
2026-04-21 11:24 25.24118 55.37594 31 ft 4 kts 301°
2026-04-21 11:25 25.24107 55.37614 32 ft 4 kts 308°
2026-04-21 11:25 25.24090 55.37632 32 ft 4 kts 334°
2026-04-21 11:25 25.24072 55.37638 31 ft 4 kts 13°
2026-04-21 11:25 25.24052 55.37627 30 ft 4 kts 31°
2026-04-21 11:26 25.24032 55.37614 32 ft 1 kts 31°
2026-04-21 11:26 25.24031 55.37614 32 ft 10 kts 31°
2026-04-21 11:30 25.24033 55.37615 32 ft 3 kts 31°
2026-04-21 11:30 25.24107 55.37664 32 ft 15 kts 31°
2026-04-21 11:30 25.24199 55.37726 26 ft 16 kts 31°
2026-04-21 11:30 25.24288 55.37791 27 ft 15 kts 43°
2026-04-21 11:31 25.24284 55.37869 28 ft 11 kts 124°
2026-04-21 11:31 25.24240 55.37945 28 ft 12 kts 122°
2026-04-21 11:31 25.24194 55.38026 28 ft 13 kts 122°
2026-04-21 11:31 25.24141 55.38121 28 ft 18 kts 122°
2026-04-21 11:32 25.24061 55.38264 28 ft 25 kts 121°
2026-04-21 11:32 25.23960 55.38448 28 ft 32 kts 121°
2026-04-21 11:32 25.23869 55.38604 27 ft 22 kts 122°
2026-04-21 11:32 25.23801 55.38726 28 ft 16 kts 121°
2026-04-21 11:33 25.23738 55.38839 28 ft 19 kts 122°
2026-04-21 11:33 25.23667 55.38964 28 ft 19 kts 122°
2026-04-21 11:33 25.23599 55.39087 28 ft 19 kts 121°
2026-04-21 11:33 25.23529 55.39211 28 ft 19 kts 123°
2026-04-21 11:34 25.23491 55.39319 29 ft 12 kts 70°
2026-04-21 11:34 25.23511 55.39345 30 ft 0 kts 38°
2026-04-21 11:37 25.23544 55.39371 33 ft 13 kts 33°
2026-04-21 11:37 25.23647 55.39379 37 ft 18 kts 321°
2026-04-21 11:37 25.23672 55.39342 37 ft 0 kts 302°
2026-04-21 11:38 25.23737 55.39224 37 ft 57 kts 301°
2026-04-21 11:38 25.24104 55.38565 35 ft 142 kts 301°
2026-04-21 11:38 25.24739 55.37414 93 ft 200 kts 302°
2026-04-21 11:39 25.25470 55.36076 708 ft 207 kts 302°
2026-04-21 11:39 25.26180 55.34778 1816 ft 191 kts 306°
2026-04-21 11:39 25.26878 55.33657 2554 ft 194 kts 307°
2026-04-21 11:39 25.27679 55.32408 3337 ft 197 kts 307°
2026-04-21 11:40 25.28463 55.31173 4149 ft 194 kts 305°
2026-04-21 11:40 25.29181 55.29905 4705 ft 196 kts 286°
2026-04-21 11:40 25.29161 55.28393 5013 ft 204 kts 249°
2026-04-21 11:40 25.28548 55.26962 5015 ft 207 kts 245°
2026-04-21 11:41 25.27912 55.25505 5068 ft 216 kts 245°
2026-04-21 11:41 25.27267 55.24019 5066 ft 212 kts 245°
2026-04-21 11:41 25.26619 55.22516 5286 ft 229 kts 245°
2026-04-21 11:41 25.25932 55.20918 6041 ft 230 kts 245°
2026-04-21 11:42 25.25240 55.19303 6683 ft 237 kts 245°
2026-04-21 11:42 25.24534 55.17646 6992 ft 239 kts 245°
2026-04-21 11:42 25.23770 55.15903 7018 ft 263 kts 243°
2026-04-21 11:42 25.22829 55.14081 7012 ft 274 kts 240°
2026-04-21 11:43 25.21870 55.12279 6994 ft 271 kts 240°
2026-04-21 11:43 25.20924 55.10492 7013 ft 276 kts 240°
2026-04-21 11:43 25.19975 55.08633 7009 ft 279 kts 244°
2026-04-21 11:43 25.19186 55.06675 6993 ft 277 kts 244°
2026-04-21 11:44 25.17946 55.05090 6998 ft 277 kts 211°
2026-04-21 11:44 25.16132 55.04411 7341 ft 277 kts 196°
2026-04-21 11:44 25.14248 55.03819 8096 ft 285 kts 199°
2026-04-21 11:44 25.12347 55.03150 8972 ft 288 kts 200°
2026-04-21 11:45 25.10428 55.02460 9871 ft 292 kts 200°
2026-04-21 11:45 25.08479 55.01756 10631 ft 300 kts 200°
2026-04-21 11:45 25.06409 55.01006 10908 ft 327 kts 200°
2026-04-21 11:45 25.04157 55.00191 11120 ft 354 kts 200°
2026-04-21 11:46 25.01738 54.99317 11515 ft 374 kts 199°
2026-04-21 11:46 24.99241 54.98418 12363 ft 380 kts 200°
2026-04-21 11:46 24.96712 54.97508 13229 ft 384 kts 199°
2026-04-21 11:46 24.94161 54.96595 14120 ft 387 kts 199°
2026-04-21 11:47 24.91590 54.95671 14899 ft 391 kts 199°
2026-04-21 11:47 24.88987 54.94733 15662 ft 396 kts 200°
2026-04-21 11:47 24.86382 54.93706 16429 ft 399 kts 204°
2026-04-21 11:47 24.83873 54.92371 17210 ft 402 kts 210°
2026-04-21 11:48 24.81417 54.90881 17979 ft 406 kts 211°
2026-04-21 11:48 24.78928 54.89366 18641 ft 410 kts 211°
2026-04-21 11:48 24.76414 54.87848 19306 ft 414 kts 211°
2026-04-21 11:48 24.73874 54.86324 19985 ft 418 kts 211°
2026-04-21 11:49 24.71307 54.84792 20641 ft 422 kts 211°
2026-04-21 11:49 24.68721 54.83252 21285 ft 426 kts 211°
2026-04-21 11:49 24.66126 54.81647 21916 ft 429 kts 213°
2026-04-21 11:49 24.63538 54.79982 22542 ft 433 kts 213°
2026-04-21 11:50 24.60936 54.78296 23151 ft 436 kts 213°
2026-04-21 11:50 24.58305 54.76601 23673 ft 440 kts 213°
2026-04-21 11:50 24.55649 54.74903 24172 ft 443 kts 213°
2026-04-21 11:50 24.52974 54.73198 24672 ft 446 kts 213°
2026-04-21 11:51 24.50290 54.71462 25156 ft 450 kts 213°
2026-04-21 11:51 24.47592 54.69700 25633 ft 453 kts 213°
2026-04-21 11:51 24.44872 54.67927 26101 ft 457 kts 213°
2026-04-21 11:51 24.42124 54.66149 26546 ft 460 kts 213°
2026-04-21 11:52 24.39337 54.64383 26989 ft 464 kts 212°
2026-04-21 11:52 24.36523 54.62610 27410 ft 468 kts 212°
2026-04-21 11:52 24.33691 54.60823 27822 ft 472 kts 212°
2026-04-21 11:52 24.30833 54.59015 28215 ft 476 kts 212°
2026-04-21 11:53 24.27972 54.57168 28605 ft 479 kts 215°
2026-04-21 11:53 24.25341 54.55014 28915 ft 479 kts 225°
2026-04-21 11:53 24.23079 54.52335 29272 ft 480 kts 234°
2026-04-21 11:53 24.21166 54.49353 29603 ft 481 kts 240°
2026-04-21 11:54 24.19548 54.46147 29993 ft 481 kts 243°
2026-04-21 11:54 24.17958 54.42924 30416 ft 480 kts 243°
2026-04-21 11:54 24.16360 54.39723 30914 ft 477 kts 243°
2026-04-21 11:54 24.14763 54.36552 31407 ft 475 kts 243°
2026-04-21 11:55 24.13162 54.33396 31851 ft 473 kts 243°
2026-04-21 11:55 24.11562 54.30251 32288 ft 472 kts 243°
2026-04-21 11:55 24.09964 54.27116 32723 ft 471 kts 243°
2026-04-21 11:55 24.08373 54.23995 33172 ft 469 kts 244°
2026-04-21 11:56 24.06789 54.20887 33621 ft 467 kts 244°
2026-04-21 11:56 24.05211 54.17794 34028 ft 464 kts 244°
2026-04-21 11:56 24.03644 54.14722 34464 ft 460 kts 245°
2026-04-21 11:56 24.02090 54.11679 34928 ft 456 kts 245°
2026-04-21 11:57 24.00552 54.08669 35381 ft 452 kts 245°
2026-04-21 11:57 23.99020 54.05679 35760 ft 450 kts 246°
2026-04-21 11:57 23.95891 53.99717 35775 ft 451 kts 245°
2026-04-21 11:58 23.92757 53.93809 35778 ft 448 kts 245°
2026-04-21 11:58 23.89663 53.87964 35770 ft 447 kts 245°
2026-04-21 11:59 23.86559 53.82092 35770 ft 446 kts 245°
2026-04-21 11:59 23.83458 53.76230 35771 ft 446 kts 245°
2026-04-21 12:00 23.80353 53.70368 35771 ft 446 kts 245°
2026-04-21 12:00 23.77244 53.64507 35774 ft 446 kts 245°
2026-04-21 12:01 23.74128 53.58638 35771 ft 447 kts 245°
2026-04-21 12:01 23.71012 53.52776 35769 ft 447 kts 245°
2026-04-21 12:02 23.66345 53.43979 35773 ft 446 kts 246°
2026-04-21 12:03 23.63240 53.38118 35769 ft 446 kts 246°
2026-04-21 12:03 23.60133 53.32264 35770 ft 446 kts 246°
2026-04-21 12:04 23.57029 53.26423 35765 ft 445 kts 246°
2026-04-21 12:04 23.53930 53.20599 35761 ft 444 kts 246°
2026-04-21 12:05 23.50837 53.14792 35759 ft 442 kts 246°
2026-04-21 12:05 23.47751 53.09003 35761 ft 441 kts 246°
2026-04-21 12:06 23.44691 53.03271 35760 ft 440 kts 246°
2026-04-21 12:06 23.41615 52.97513 35757 ft 439 kts 246°
2026-04-21 12:07 23.38583 52.91747 35757 ft 438 kts 247°
2026-04-21 12:07 23.35629 52.85960 35755 ft 437 kts 247°
2026-04-21 12:08 23.32675 52.80181 35753 ft 437 kts 247°
2026-04-21 12:08 23.29709 52.74407 35749 ft 437 kts 247°
2026-04-21 12:09 23.26738 52.68639 35749 ft 437 kts 247°
2026-04-21 12:09 23.23766 52.62875 35743 ft 437 kts 247°
2026-04-21 12:10 23.20794 52.57115 35745 ft 437 kts 247°
2026-04-21 12:10 23.17977 52.51291 35743 ft 432 kts 252°
2026-04-21 12:11 23.15966 52.45190 35745 ft 428 kts 257°
2026-04-21 12:11 23.14049 52.39047 35738 ft 430 kts 256°
2026-04-21 12:12 23.12088 52.32909 35738 ft 430 kts 256°
2026-04-21 12:12 23.10119 52.26765 35738 ft 431 kts 256°
2026-04-21 12:13 23.08149 52.20611 35737 ft 431 kts 256°
2026-04-21 12:13 23.06178 52.14458 35734 ft 432 kts 256°
2026-04-21 12:14 23.04204 52.08304 35732 ft 432 kts 256°
2026-04-21 12:14 23.02239 52.02190 35734 ft 431 kts 256°
2026-04-21 12:15 23.00266 51.96044 35737 ft 431 kts 256°
2026-04-21 12:15 22.98299 51.89896 35737 ft 431 kts 256°
2026-04-21 12:16 22.96332 51.83756 35736 ft 431 kts 256°
2026-04-21 12:16 22.94363 51.77619 35733 ft 431 kts 256°
2026-04-21 12:17 22.92392 51.71487 35727 ft 430 kts 256°
2026-04-21 12:17 22.90421 51.65364 35730 ft 430 kts 256°
2026-04-21 12:18 22.88447 51.59240 35738 ft 430 kts 256°
2026-04-21 12:18 22.86472 51.53119 35728 ft 430 kts 256°
2026-04-21 12:19 22.84538 51.46991 35742 ft 428 kts 259°
2026-04-21 12:19 22.83277 51.40735 35743 ft 424 kts 264°
2026-04-21 12:20 22.82205 51.34452 35736 ft 424 kts 264°
2026-04-21 12:20 22.81110 51.28168 35728 ft 425 kts 264°
2026-04-21 12:21 22.80006 51.21883 35728 ft 425 kts 264°
2026-04-21 12:21 22.78897 51.15588 35741 ft 425 kts 264°
2026-04-21 12:22 22.77783 51.09296 35731 ft 425 kts 263°
2026-04-21 12:22 22.76653 51.03008 35738 ft 426 kts 263°
2026-04-21 12:23 22.75518 50.96714 35725 ft 426 kts 263°
2026-04-21 12:23 22.74382 50.90419 35725 ft 425 kts 263°
2026-04-21 12:24 22.73253 50.84176 35740 ft 425 kts 263°
2026-04-21 12:24 22.72115 50.77892 35739 ft 425 kts 263°
2026-04-21 12:25 22.70975 50.71611 35731 ft 425 kts 263°
2026-04-21 12:25 22.69833 50.65337 35728 ft 425 kts 263°
2026-04-21 12:26 22.68875 50.60081 35737 ft 425 kts 263°
2026-04-21 12:26 22.67729 50.53811 35728 ft 424 kts 263°
2026-04-21 12:27 22.66582 50.47548 35728 ft 424 kts 263°
2026-04-21 12:27 22.65431 50.41282 35736 ft 424 kts 263°
2026-04-21 12:28 22.64280 50.35023 35738 ft 424 kts 263°
2026-04-21 12:28 22.63125 50.28763 35735 ft 424 kts 263°
2026-04-21 12:29 22.61976 50.22542 35738 ft 424 kts 263°
2026-04-21 12:29 22.60816 50.16283 35734 ft 424 kts 263°
2026-04-21 12:30 22.59655 50.10026 35729 ft 424 kts 263°
2026-04-21 12:30 22.58489 50.03764 35728 ft 424 kts 263°
2026-04-21 12:31 22.57323 49.97509 35731 ft 424 kts 263°
2026-04-21 12:31 22.56154 49.91252 35724 ft 424 kts 263°
2026-04-21 12:32 22.54982 49.84994 35736 ft 424 kts 263°
2026-04-21 12:32 22.54056 49.78726 35727 ft 419 kts 269°
2026-04-21 12:33 22.53939 49.72442 35734 ft 416 kts 276°
2026-04-21 12:33 22.54479 49.66224 35738 ft 415 kts 278°
2026-04-21 12:34 22.55098 49.60013 35736 ft 416 kts 278°
2026-04-21 12:34 22.55707 49.53791 35735 ft 416 kts 278°
2026-04-21 12:35 22.56301 49.47562 35726 ft 416 kts 278°
2026-04-21 12:35 22.56887 49.41331 35735 ft 416 kts 278°
2026-04-21 12:36 22.57469 49.35100 35737 ft 416 kts 278°
2026-04-21 12:36 22.58048 49.28875 35728 ft 416 kts 278°
2026-04-21 12:37 22.58625 49.22650 35727 ft 416 kts 278°
2026-04-21 12:37 22.59200 49.16421 35728 ft 416 kts 277°
2026-04-21 12:38 22.59771 49.10203 35731 ft 415 kts 277°
2026-04-21 12:38 22.60336 49.04030 35727 ft 415 kts 277°
2026-04-21 12:39 22.60906 48.97776 35733 ft 415 kts 277°
2026-04-21 12:39 22.61465 48.91608 35731 ft 414 kts 277°
2026-04-21 12:40 22.62026 48.85403 35736 ft 414 kts 277°
2026-04-21 12:40 22.62584 48.79200 35735 ft 414 kts 277°
2026-04-21 12:41 22.63139 48.72994 35739 ft 414 kts 277°
2026-04-21 12:41 22.63692 48.66794 35733 ft 414 kts 277°
2026-04-21 12:42 22.64243 48.60590 35734 ft 414 kts 277°
2026-04-21 12:42 22.64791 48.54386 35732 ft 414 kts 277°
2026-04-21 12:43 22.65336 48.48189 35733 ft 414 kts 277°
2026-04-21 12:43 22.65879 48.41991 35735 ft 414 kts 277°
2026-04-21 12:44 22.66419 48.35790 35736 ft 414 kts 277°
2026-04-21 12:44 22.66957 48.29590 35734 ft 414 kts 277°
2026-04-21 12:45 22.67493 48.23388 35736 ft 414 kts 277°
2026-04-21 12:45 22.68027 48.17190 35734 ft 414 kts 277°
2026-04-21 12:46 22.68557 48.10987 35731 ft 414 kts 277°
2026-04-21 12:46 22.69086 48.04787 35735 ft 414 kts 277°
2026-04-21 12:47 22.69613 47.98580 35734 ft 414 kts 277°
2026-04-21 12:47 22.70137 47.92375 35738 ft 414 kts 277°
2026-04-21 12:48 22.70659 47.86164 35744 ft 414 kts 277°
2026-04-21 12:48 22.71175 47.79989 35744 ft 414 kts 276°
2026-04-21 12:49 22.71693 47.73771 35740 ft 415 kts 276°
2026-04-21 12:49 22.72209 47.67548 35732 ft 415 kts 276°
2026-04-21 12:50 22.72722 47.61326 35751 ft 415 kts 276°
2026-04-21 12:50 22.73233 47.55095 35742 ft 415 kts 276°
2026-04-21 12:51 22.73742 47.48869 35744 ft 415 kts 276°
2026-04-21 12:51 22.74249 47.42637 35751 ft 415 kts 276°
2026-04-21 12:52 22.74753 47.36413 35753 ft 415 kts 276°
2026-04-21 12:52 22.75253 47.30196 35749 ft 414 kts 276°
2026-04-21 12:53 22.75751 47.23976 35750 ft 414 kts 276°
2026-04-21 12:53 22.76246 47.17767 35746 ft 414 kts 276°
2026-04-21 12:54 22.76739 47.11557 35756 ft 414 kts 276°
2026-04-21 12:54 22.77229 47.05348 35757 ft 413 kts 276°
2026-04-21 12:55 22.77717 46.99139 35750 ft 413 kts 276°
2026-04-21 12:55 22.78202 46.92936 35748 ft 413 kts 276°
2026-04-21 12:56 22.78684 46.86731 35753 ft 413 kts 276°
2026-04-21 12:56 22.79164 46.80525 35752 ft 413 kts 276°
2026-04-21 12:57 22.79642 46.74327 35752 ft 413 kts 276°
2026-04-21 12:57 22.80117 46.68126 35757 ft 413 kts 276°
2026-04-21 12:58 22.80586 46.61967 35766 ft 413 kts 276°
2026-04-21 12:58 22.81056 46.55772 35762 ft 413 kts 276°
2026-04-21 12:59 22.81523 46.49574 35769 ft 413 kts 276°
2026-04-21 12:59 22.81989 46.43371 35772 ft 413 kts 275°
2026-04-21 13:00 22.82451 46.37168 35770 ft 413 kts 276°
2026-04-21 13:00 22.82912 46.30972 35771 ft 412 kts 275°
2026-04-21 13:01 22.83369 46.24774 35762 ft 412 kts 276°
2026-04-21 13:01 22.83824 46.18579 35764 ft 412 kts 275°
2026-04-21 13:02 22.84276 46.12390 35762 ft 412 kts 275°
2026-04-21 13:02 22.84951 46.03096 35750 ft 413 kts 275°
2026-04-21 13:03 22.85399 45.96888 35750 ft 412 kts 275°
2026-04-21 13:03 22.85843 45.90695 35753 ft 412 kts 275°
2026-04-21 13:04 22.86285 45.84495 35751 ft 412 kts 275°
2026-04-21 13:04 22.86724 45.78294 35739 ft 412 kts 275°
2026-04-21 13:05 22.87162 45.72093 35748 ft 412 kts 275°
2026-04-21 13:05 22.87597 45.65890 35752 ft 412 kts 275°
2026-04-21 13:06 22.88029 45.59688 35749 ft 413 kts 275°
2026-04-21 13:06 22.88460 45.53481 35752 ft 412 kts 275°
2026-04-21 13:07 22.88887 45.47280 35749 ft 412 kts 275°
2026-04-21 13:07 22.89312 45.41084 35746 ft 412 kts 275°
2026-04-21 13:08 22.89735 45.34889 35753 ft 411 kts 275°
2026-04-21 13:08 22.90154 45.28712 35758 ft 411 kts 275°
2026-04-21 13:09 22.90570 45.22526 35748 ft 411 kts 275°
2026-04-21 13:09 22.90984 45.16353 35757 ft 410 kts 275°
2026-04-21 13:10 22.91396 45.10180 35767 ft 410 kts 274°
2026-04-21 13:10 22.91804 45.04009 35754 ft 410 kts 274°
2026-04-21 13:11 22.92210 44.97842 35760 ft 410 kts 274°
2026-04-21 13:11 22.92615 44.91666 35754 ft 411 kts 274°
2026-04-21 13:12 22.93014 44.85532 35755 ft 410 kts 274°
2026-04-21 13:12 22.93414 44.79359 35765 ft 411 kts 274°
2026-04-21 13:13 22.93748 44.74180 35761 ft 411 kts 274°
2026-04-21 13:13 22.94545 44.67037 35774 ft 411 kts 280°
2026-04-21 13:14 22.95735 44.62000 35770 ft 412 kts 285°
2026-04-21 13:14 22.97556 44.56098 35767 ft 412 kts 286°
2026-04-21 13:15 22.99388 44.50244 35774 ft 412 kts 286°
2026-04-21 13:15 23.01218 44.44348 35771 ft 412 kts 286°
2026-04-21 13:16 23.03037 44.38450 35767 ft 412 kts 286°
2026-04-21 13:16 23.04849 44.32551 35770 ft 412 kts 286°
2026-04-21 13:17 23.06658 44.26652 35775 ft 412 kts 286°
2026-04-21 13:17 23.08463 44.20757 35773 ft 411 kts 286°
2026-04-21 13:18 23.10266 44.14862 35777 ft 411 kts 286°
2026-04-21 13:18 23.12066 44.08965 35785 ft 411 kts 285°
2026-04-21 13:19 23.13866 44.03060 35778 ft 412 kts 285°
2026-04-21 13:19 23.15662 43.97159 35781 ft 411 kts 285°
2026-04-21 13:20 23.17457 43.91256 35798 ft 411 kts 285°
2026-04-21 13:20 23.19247 43.85360 35796 ft 410 kts 285°
2026-04-21 13:21 23.21030 43.79474 35792 ft 410 kts 285°
2026-04-21 13:21 23.22810 43.73592 35800 ft 409 kts 285°
2026-04-21 13:22 23.24585 43.67716 35810 ft 409 kts 285°
2026-04-21 13:22 23.26359 43.61837 35813 ft 409 kts 285°
2026-04-21 13:23 23.28128 43.55965 35822 ft 408 kts 285°
2026-04-21 13:23 23.29880 43.50141 35830 ft 407 kts 285°
2026-04-21 13:24 23.31637 43.44289 35838 ft 407 kts 285°
2026-04-21 13:24 23.33392 43.38439 35836 ft 406 kts 285°
2026-04-21 13:25 23.35140 43.32601 35842 ft 405 kts 285°
2026-04-21 13:25 23.36883 43.26769 35850 ft 405 kts 285°
2026-04-21 13:26 23.38624 43.20939 35856 ft 405 kts 285°
2026-04-21 13:26 23.40372 43.15076 35857 ft 405 kts 285°
2026-04-21 13:27 23.42095 43.09284 35861 ft 405 kts 285°
2026-04-21 13:27 23.43829 43.03450 35863 ft 405 kts 285°
2026-04-21 13:28 23.45560 42.97619 35871 ft 405 kts 285°
2026-04-21 13:28 23.47289 42.91784 35876 ft 405 kts 285°
2026-04-21 13:29 23.49014 42.85950 35884 ft 404 kts 285°
2026-04-21 13:29 23.50736 42.80120 35877 ft 404 kts 285°
2026-04-21 13:30 23.52457 42.74288 35875 ft 404 kts 285°
2026-04-21 13:30 23.54172 42.68465 35873 ft 403 kts 285°
2026-04-21 13:31 23.55882 42.62649 35877 ft 403 kts 285°
2026-04-21 13:31 23.57588 42.56837 35871 ft 402 kts 285°
2026-04-21 13:32 23.59291 42.51029 35872 ft 402 kts 284°
2026-04-21 13:32 23.60989 42.45226 35877 ft 402 kts 284°
2026-04-21 13:33 23.62685 42.39422 35875 ft 402 kts 284°
2026-04-21 13:33 23.64379 42.33620 35875 ft 402 kts 284°
2026-04-21 13:34 23.66070 42.27813 35872 ft 402 kts 284°
2026-04-21 13:34 23.67760 42.22005 35871 ft 402 kts 284°
2026-04-21 13:35 23.69437 42.16232 35871 ft 402 kts 284°
2026-04-21 13:35 23.71126 42.10408 35866 ft 403 kts 284°
2026-04-21 13:36 23.72813 42.04582 35866 ft 403 kts 284°
2026-04-21 13:36 23.74498 41.98754 35868 ft 403 kts 284°
2026-04-21 13:37 23.76181 41.92923 35866 ft 403 kts 284°
2026-04-21 13:37 23.77862 41.87091 35863 ft 403 kts 284°
2026-04-21 13:38 23.79542 41.81254 35864 ft 403 kts 284°
2026-04-21 13:38 23.81219 41.75415 35865 ft 403 kts 284°
2026-04-21 13:39 23.82895 41.69572 35868 ft 403 kts 284°
2026-04-21 13:39 23.84569 41.63729 35864 ft 403 kts 284°
2026-04-21 13:40 23.86228 41.57928 35870 ft 403 kts 284°
2026-04-21 13:40 23.87898 41.52079 35868 ft 403 kts 284°
2026-04-21 13:41 23.89566 41.46228 35870 ft 403 kts 284°
2026-04-21 13:41 23.91232 41.40372 35871 ft 404 kts 284°
2026-04-21 13:42 23.92898 41.34509 35868 ft 404 kts 284°
2026-04-21 13:42 23.94561 41.28650 35864 ft 404 kts 284°
2026-04-21 13:43 23.96220 41.22793 35874 ft 403 kts 284°
2026-04-21 13:43 23.97874 41.16944 35877 ft 402 kts 284°
2026-04-21 13:44 23.99522 41.11109 35868 ft 401 kts 284°
2026-04-21 13:44 24.00338 41.08220 35661 ft 393 kts 284°
2026-04-21 13:44 24.01137 41.05388 35166 ft 388 kts 284°
2026-04-21 13:45 24.01937 41.02542 34153 ft 396 kts 284°
2026-04-21 13:45 24.02757 40.99616 32790 ft 409 kts 284°
2026-04-21 13:45 24.03604 40.96591 31250 ft 425 kts 284°
2026-04-21 13:45 24.04484 40.93450 29986 ft 436 kts 284°
2026-04-21 13:46 24.05378 40.90269 29003 ft 437 kts 285°
2026-04-21 13:46 24.06266 40.87113 28326 ft 431 kts 285°
2026-04-21 13:46 24.07138 40.84009 27718 ft 424 kts 285°
2026-04-21 13:46 24.07999 40.80939 27076 ft 420 kts 285°
2026-04-21 13:47 24.08851 40.77894 26382 ft 417 kts 285°
2026-04-21 13:47 24.09686 40.74905 25684 ft 416 kts 285°
2026-04-21 13:47 24.10528 40.71885 24991 ft 414 kts 285°
2026-04-21 13:47 24.11367 40.68877 24353 ft 412 kts 286°
2026-04-21 13:48 24.12202 40.65883 23743 ft 410 kts 286°
2026-04-21 13:48 24.13032 40.62902 23082 ft 408 kts 286°
2026-04-21 13:48 24.13856 40.59943 22431 ft 405 kts 285°
2026-04-21 13:48 24.14683 40.56969 21824 ft 401 kts 285°
2026-04-21 13:49 24.15477 40.54098 21246 ft 397 kts 284°
2026-04-21 13:49 24.16119 40.51127 20628 ft 394 kts 279°
2026-04-21 13:49 24.16485 40.48214 20040 ft 390 kts 274°
2026-04-21 13:49 24.16693 40.45217 19468 ft 388 kts 273°
2026-04-21 13:50 24.16891 40.42325 18930 ft 385 kts 273°
2026-04-21 13:50 24.17093 40.39415 18393 ft 382 kts 273°
2026-04-21 13:50 24.17296 40.36521 17815 ft 380 kts 273°
2026-04-21 13:50 24.17500 40.33646 17222 ft 377 kts 273°
2026-04-21 13:51 24.17703 40.30794 16656 ft 374 kts 273°
2026-04-21 13:51 24.17906 40.27958 16086 ft 372 kts 272°
2026-04-21 13:51 24.18107 40.25143 15541 ft 370 kts 272°
2026-04-21 13:51 24.18307 40.22338 14985 ft 368 kts 272°
2026-04-21 13:52 24.18505 40.19553 14438 ft 366 kts 272°
2026-04-21 13:52 24.18702 40.16781 13933 ft 364 kts 272°
2026-04-21 13:52 24.18898 40.14025 13359 ft 363 kts 272°
2026-04-21 13:52 24.19091 40.11277 12803 ft 361 kts 272°
2026-04-21 13:53 24.19283 40.08555 12457 ft 353 kts 272°
2026-04-21 13:53 24.19470 40.05931 12377 ft 339 kts 272°
2026-04-21 13:53 24.19647 40.03412 12288 ft 325 kts 272°
2026-04-21 13:53 24.19817 40.00989 12206 ft 313 kts 272°
2026-04-21 13:54 24.19979 39.98659 12128 ft 301 kts 272°
2026-04-21 13:54 24.20135 39.96415 12037 ft 290 kts 272°
2026-04-21 13:54 24.20286 39.94252 11940 ft 280 kts 272°
2026-04-21 13:54 24.20431 39.92160 11789 ft 272 kts 272°
2026-04-21 13:55 24.20571 39.90131 11489 ft 270 kts 271°
2026-04-21 13:55 24.20512 39.88104 11005 ft 267 kts 259°
2026-04-21 13:55 24.20154 39.86110 10668 ft 266 kts 256°
2026-04-21 13:55 24.19772 39.84158 10557 ft 257 kts 257°
2026-04-21 13:56 24.19428 39.82284 10444 ft 245 kts 262°
2026-04-21 13:56 24.19626 39.80464 10205 ft 243 kts 291°
2026-04-21 13:56 24.20607 39.78970 9962 ft 245 kts 314°
2026-04-21 13:56 24.22012 39.77909 9622 ft 248 kts 334°
2026-04-21 13:57 24.23695 39.77409 9247 ft 253 kts 346°
2026-04-21 13:57 24.25428 39.77075 8966 ft 252 kts 347°
2026-04-21 13:57 24.27139 39.76745 8716 ft 247 kts 346°
2026-04-21 13:57 24.28820 39.76413 8486 ft 244 kts 346°
2026-04-21 13:58 24.30490 39.76077 8184 ft 243 kts 346°
2026-04-21 13:58 24.32156 39.75730 7873 ft 244 kts 346°
2026-04-21 13:58 24.33813 39.75382 7572 ft 242 kts 346°
2026-04-21 13:58 24.35467 39.75034 7294 ft 241 kts 345°
2026-04-21 13:59 24.37098 39.74694 7163 ft 235 kts 346°
2026-04-21 13:59 24.38668 39.74367 7075 ft 224 kts 345°
2026-04-21 13:59 24.40147 39.74069 7050 ft 208 kts 351°
2026-04-21 13:59 24.41538 39.74342 6803 ft 206 kts 27°
2026-04-21 14:00 24.42499 39.75461 6549 ft 204 kts 65°
2026-04-21 14:00 24.42793 39.76980 6102 ft 206 kts 84°
2026-04-21 14:00 24.42921 39.78546 5812 ft 201 kts 89°
2026-04-21 14:00 24.42574 39.80012 5313 ft 202 kts 126°
2026-04-21 14:01 24.41503 39.80966 4815 ft 200 kts 163°
2026-04-21 14:01 24.40188 39.81385 4563 ft 192 kts 168°
2026-04-21 14:01 24.38956 39.81772 4476 ft 179 kts 168°
2026-04-21 14:01 24.37702 39.82170 4574 ft 198 kts 168°
2026-04-21 14:02 24.36809 39.82451 4542 ft 204 kts 168°
2026-04-21 14:02 24.35007 39.83029 4481 ft 198 kts 168°
2026-04-21 14:02 24.34143 39.83225 4476 ft 185 kts 186°
2026-04-21 14:03 24.32363 39.81615 4501 ft 180 kts 264°
2026-04-21 14:03 24.32613 39.80303 4531 ft 180 kts 303°
2026-04-21 14:03 24.33547 39.79410 4529 ft 179 kts 325°
2026-04-21 14:03 24.34606 39.78685 4499 ft 179 kts 326°
2026-04-21 14:04 24.35653 39.77970 4485 ft 175 kts 326°
2026-04-21 14:04 24.36670 39.77275 4488 ft 170 kts 326°
2026-04-21 14:04 24.37685 39.76584 4498 ft 174 kts 326°
2026-04-21 14:04 24.38724 39.75879 4528 ft 178 kts 326°
2026-04-21 14:05 24.39799 39.75152 4498 ft 183 kts 326°
2026-04-21 14:05 24.40854 39.74435 4499 ft 175 kts 326°
2026-04-21 14:05 24.41956 39.73930 4497 ft 172 kts 343°
2026-04-21 14:05 24.43166 39.73662 4516 ft 182 kts 346°
2026-04-21 14:06 24.44432 39.73392 4216 ft 195 kts 346°
2026-04-21 14:06 24.45762 39.73087 3855 ft 190 kts 343°
2026-04-21 14:06 24.46983 39.72746 3674 ft 171 kts 343°
2026-04-21 14:06 24.48079 39.72459 3523 ft 152 kts 345°
2026-04-21 14:07 24.49039 39.72157 3483 ft 140 kts 343°
2026-04-21 14:07 24.50038 39.71936 3234 ft 150 kts 347°
2026-04-21 14:07 24.51077 39.71725 2866 ft 149 kts 345°
2026-04-21 14:07 24.52085 39.71504 2509 ft 146 kts 347°
2026-04-21 14:08 24.53047 39.71311 2282 ft 135 kts 347°
2026-04-21 14:08 24.53979 39.71111 2145 ft 138 kts 347°
2026-04-21 14:08 24.54850 39.70927 2118 ft 114 kts 348°
2026-04-21 14:08 24.55507 39.70787 2114 ft 78 kts 349°
2026-04-21 14:09 24.55917 39.70700 2116 ft 43 kts 349°
2026-04-21 14:09 24.56122 39.70696 2118 ft 18 kts
2026-04-21 14:09 24.56252 39.70753 2115 ft 19 kts 43°
2026-04-21 14:09 24.56228 39.70826 2112 ft 16 kts 162°
2026-04-21 14:10 24.56063 39.70858 2112 ft 32 kts 170°
2026-04-21 14:10 24.55868 39.70900 2112 ft 24 kts 168°
2026-04-21 14:10 24.55713 39.70933 2111 ft 18 kts 169°
2026-04-21 14:10 24.55586 39.70959 2111 ft 18 kts 169°
2026-04-21 14:11 24.55464 39.70986 2111 ft 18 kts 169°
2026-04-21 14:11 24.55340 39.71012 2111 ft 18 kts 169°
2026-04-21 14:11 24.55238 39.71074 2111 ft 18 kts 107°
2026-04-21 14:11 24.55241 39.71184 2110 ft 9 kts 89°
2026-04-21 14:12 24.55237 39.71255 2110 ft 10 kts 86°
2026-04-21 14:12 24.55246 39.71309 2110 ft 4 kts 79°
2026-04-21 14:12 24.55248 39.71320 2110 ft 0 kts 79°
2026-04-21 14:12 24.55248 39.71321 2110 ft 0 kts 79°